Regional Weather Roundup
Issued by NWS Cleveland, OH

Home | Current Version | Previous Version | Graphics & Text | Print | Product List | Glossary On
Versions: 1 2 3 4 5 6 7 8 9 10 11 12 13 14 15 16 17 18 19 20 21 22 23 24 25 26 27 28 29 30 31 32 33 34 35 36 37 38 39 40 41 42 43 44 45 46 47 48 49 50
000
ASUS41 KCLE 241502
RWRCLE
OHIO REGIONAL WEATHER ROUNDUP
NATIONAL WEATHER SERVICE CLEVELAND, OH
1100 AM EDT THU MAY 24 2018

NOTE: "FAIR" INDICATES FEW OR NO CLOUDS BELOW 12,000 FEET WITH NO
SIGNIFICANT WEATHER AND/OR OBSTRUCTIONS TO VISIBILITY.

OHZ001>008-015>018-024>027-034-035-043-044-241600-
   NORTHWEST OHIO

CITY           SKY/WX    TMP DP  RH WIND       PRES   REMARKS
DEFIANCE       FAIR      74  52  46 S5        30.25S
FINDLAY        FAIR      77  48  35 CALM      30.24S
TOLEDO EXPRESS FAIR      77  53  43 CALM      30.24S
TOLEDO EXEC    FAIR      76  51  41 VRB3      30.24F
LIMA           FAIR      75  49  39 SE7       30.25S
$$

OHZ009>014-019>023-028>033-038-089-241600-
   NORTHEAST OHIO

CITY           SKY/WX    TMP DP  RH WIND       PRES   REMARKS
CLE-HOPKINS    FAIR      75  53  46 NE5       30.26S
CLE-LAKEFRONT  FAIR      70  52  52 CALM      30.23F
CUY CO. ARPT   SUNNY     75  54  46 N6        30.25F
LORAIN-ELYRIA  FAIR      74  51  44 VRB5      30.25F
ASHTABULA      FAIR      72  54  53 CALM      30.25F
AKRON-CANTON   FAIR      73  49  42 VRB3      30.25F
WOOSTER        FAIR      73  52  47 CALM      30.26F
MANSFIELD      FAIR      73  51  46 NE6       30.26S
YOUNGSTOWN     FAIR      73  50  44 N5        30.25F
$$

OHZ042-051>053-060>062-070>072-077>081-241600-
  SOUTHWEST OHIO

CITY           SKY/WX    TMP DP  RH WIND       PRES   REMARKS
CINC-COVINGTON FAIR      73  56  54 E8        30.22F
CINC-LUNKEN    FAIR      74  60  61 VRB6      30.22F
HAMILTON       FAIR      75  57  53 VRB7      30.23F
DAYTON         FAIR      74  54  49 E8        30.25F
WRIGHT-PAT AFB FAIR      75  51  43 E9        30.23F
DAYTON GENERAL FAIR      76  53  44 E10       30.23F
WILMINGTON     FAIR      72  58  61 E8        30.23F
$$

OHZ036-037-039>041-045>050-054>059-063>069-073>076-082>088-241600-
  CENTRAL AND SOUTHEAST OHIO

CITY           SKY/WX    TMP DP  RH WIND       PRES   REMARKS
COLUMBUS       FAIR      76  45  33 SE12      30.23F
OSU AIRPORT    FAIR      75  47  36 SE8       30.24S
BOLTON FIELD   SUNNY     73  52  46 NE3       30.25S
RICKENBACK AFB FAIR      73  54  52 MISG      30.23S
NEWARK         FAIR      74  51  44 NE7       30.24S
MARION         FAIR      75  50  41 VRB5      30.25F
LANCASTER      FAIR      73  55  53 E6        30.24F
ZANESVILLE     FAIR      74  51  44 VRB5      30.24F
NEW PHILLY     NOT AVBL
$$



USA.gov is the U.S. government's official web portal to all federal, state and local government web resources and services.